PHASN EDDL-EDDL

Flight info

Callsign PHASN
Flight time N/A
Altitude
Route
Aircraft C152

Departure

Time 2026-05-07 17:12
Airport Düsseldorf Airport (EDDL)

Arrival

Time N/A
Airport Düsseldorf Airport (EDDL)
Time Latitude Longitude Altitude Speed Heading
2026-05-07 17:05 51.27601 6.75225 118 ft 0 kts 76°
2026-05-07 17:08 51.27602 6.75228 118 ft 3 kts 44°
2026-05-07 17:08 51.27662 6.75184 118 ft 13 kts 12°
2026-05-07 17:08 51.27749 6.75221 119 ft 13 kts 52°
2026-05-07 17:09 51.27802 6.75333 121 ft 11 kts 52°
2026-05-07 17:09 51.27868 6.75329 120 ft 13 kts 333°
2026-05-07 17:09 51.27944 6.75271 116 ft 12 kts 344°
2026-05-07 17:09 51.28023 6.75330 117 ft 5 kts 52°
2026-05-07 17:10 51.28024 6.75331 117 ft 0 kts 52°
2026-05-07 17:11 51.28099 6.75490 120 ft 43 kts 53°
2026-05-07 17:11 51.28351 6.76016 182 ft 67 kts 52°
2026-05-07 17:11 51.28643 6.76619 314 ft 70 kts 52°
2026-05-07 17:12 51.28931 6.77258 455 ft 71 kts 53°
2026-05-07 17:12 51.29136 6.77999 563 ft 77 kts 88°
2026-05-07 17:12 51.28803 6.78685 679 ft 89 kts 146°
2026-05-07 17:12 51.28229 6.79140 757 ft 94 kts 166°
2026-05-07 17:13 51.27604 6.78845 806 ft 100 kts 221°
2026-05-07 17:13 51.27180 6.77949 841 ft 103 kts 240°
2026-05-07 17:13 51.26611 6.77353 885 ft 103 kts 178°
2026-05-07 17:13 51.26059 6.77919 962 ft 98 kts 111°
2026-05-07 17:14 51.26047 6.78967 1012 ft 96 kts 77°
2026-05-07 17:14 51.26370 6.79844 1020 ft 98 kts 32°
2026-05-07 17:14 51.27042 6.79849 966 ft 105 kts 328°
2026-05-07 17:14 51.27303 6.78787 869 ft 116 kts 261°
2026-05-07 17:15 51.26981 6.77624 830 ft 112 kts 243°
2026-05-07 17:15 51.26576 6.76540 797 ft 111 kts 238°
2026-05-07 17:15 51.26215 6.75552 762 ft 90 kts 246°
2026-05-07 17:15 51.25961 6.74702 683 ft 86 kts 249°
2026-05-07 17:16 51.25713 6.73781 666 ft 97 kts 248°
2026-05-07 17:16 51.25411 6.72789 679 ft 102 kts 246°
2026-05-07 17:16 51.25203 6.71710 696 ft 102 kts 276°
2026-05-07 17:16 51.25565 6.70994 740 ft 74 kts
2026-05-07 17:17 51.25918 6.71363 674 ft 57 kts 48°
2026-05-07 17:17 51.26169 6.71878 664 ft 60 kts 50°
2026-05-07 17:17 51.26437 6.72436 622 ft 66 kts 52°
2026-05-07 17:17 51.26762 6.72967 572 ft 67 kts 41°
2026-05-07 17:18 51.27096 6.73485 467 ft 68 kts 46°
2026-05-07 17:18 51.27395 6.74043 378 ft 64 kts 51°
2026-05-07 17:18 51.27672 6.74601 302 ft 65 kts 52°
2026-05-07 17:18 51.27944 6.75172 241 ft 65 kts 52°
2026-05-07 17:19 51.28225 6.75747 152 ft 65 kts 53°
2026-05-07 17:19 51.28478 6.76282 126 ft 50 kts 53°
2026-05-07 17:19 51.28700 6.76742 142 ft 65 kts 51°
2026-05-07 17:19 51.29000 6.77329 266 ft 70 kts 55°
2026-05-07 17:20 51.29054 6.78069 444 ft 67 kts 106°
2026-05-07 17:20 51.28710 6.78622 576 ft 76 kts 143°
2026-05-07 17:20 51.28241 6.79108 669 ft 85 kts 144°
2026-05-07 17:20 51.27644 6.79276 673 ft 93 kts 197°
2026-05-07 17:21 51.27225 6.78540 699 ft 95 kts 250°
2026-05-07 17:21 51.27013 6.77574 655 ft 90 kts 252°
2026-05-07 17:21 51.26786 6.76641 638 ft 91 kts 251°
2026-05-07 17:21 51.26527 6.75729 650 ft 91 kts 244°
2026-05-07 17:22 51.26226 6.74839 661 ft 90 kts 242°
2026-05-07 17:22 51.25917 6.73941 655 ft 94 kts 245°
2026-05-07 17:22 51.25821 6.72900 667 ft 97 kts 281°
2026-05-07 17:22 51.26138 6.71988 629 ft 82 kts 328°
2026-05-07 17:23 51.26532 6.72049 538 ft 53 kts 56°